TJS-6 (47613 NORAD) Tracking and Keplerian Element Data

This shows tracking and keplerian element data for the satellite.

Feedback or suggestion? Click here.




ElementValue
Catalog47613
NameTJS-6
Epoch Orbit89
Epoch Day105.86119292
Epoch Year2021
RAAN282.2516
Inclination0.8651
Eccentricity0.0001324
Argument of Perigee90.7487
Mean Anonmoly319.8019
Mean Motion1.00273156
Decay Rate4.6E-07
L11 47613U 21010A 21105.86119292 .00000046 00000-0 00000+0 0 9991
L22 47613 0.8651 282.2516 0001324 90.7487 319.8019 1.00273156 897

Live tracking and technical data element details for TJS-6 (NORAD 47613). TJS-6 can be tracked NOW for your location showing map with azimuth and elevation plus other details from your city location.

Track the satellite on the map from your city or location and see movement details for azimuth, elevation, latitude, longitude, range, height, and movement on the map or in text.







IsCatalogInMostPopularTable: catalog: 47613, numindb: 17
Update: records affected: 1



GetName: 47613 TJS-6

Hit Count: updated at: Fri, 16 Apr 2021 11:55:43 GMT